Change the Weather History Date:

Sunday, October 28, 2012

  Actual Average Record
Temperature  
Mean Temperature 40 °F -  
Max Temperature 52 °F 62 °F 82 °F (1999)
Min Temperature 30 °F 41 °F 26 °F (1997)
Degree Days  
Heating Degree Days 24    
Moisture  
Dew Point 29 °F    
Average Humidity 68    
Maximum Humidity 92    
Minimum Humidity 44    
Precipitation  
Precipitation 0.00 in - - ()
Sea Level Pressure  
Sea Level Pressure 30.27 in    
Wind  
Wind Speed 3 mph (NW)    
Max Wind Speed 14 mph    
Max Gust Speed 18 mph    
Visibility 10 miles    
Events      
Averages and records for this station are not official NWS values.
T = Trace of Precipitation, MM = Missing Value Source: NWS Daily Summary

Daily Weather History Graph

Daily Weather History Graph

Search for Another Location

Airport or City:

Trip Planner

Search our weather history database for the weather conditions in past years. The results will help you decide how hot, cold, wet, or windy it might be!

Date:

Astronomy

Oct. 28, 2012 Rise Set
Actual Time 7:25 AM CDT 6:06 PM CDT
Civil Twilight 6:58 AM CDT 6:33 PM CDT
Nautical Twilight 6:27 AM CDT 7:05 PM CDT
Astronomical Twilight 5:56 AM CDT 7:35 PM CDT
Moon 5:24 PM CDT (10/28) 6:19 AM CDT (10/28)
Length of Visible Light 11h 35m
Length of Day
10h 40m
Waxing Gibbous, 99% of the Moon is Illuminated
Oct 28
Waxing Gibbous
Oct 29
Full
Nov 6
Last Quarter
Nov 13
New
Nov 20
First Quarter

Hourly Weather History & Observations

Time (CDT) Temp. Windchill Dew Point Humidity Pressure Visibility Wind Dir Wind Speed Gust Speed Precip Events Conditions
12:54 AM 35.1 °F - 30.0 °F 82% 30.28 in 10.0 mi Calm Calm - N/A   Clear
1:54 AM 34.0 °F - 28.9 °F 82% 30.27 in 10.0 mi Calm Calm - N/A   Clear
2:54 AM 36.0 °F - 28.9 °F 76% 30.27 in 10.0 mi Calm Calm - N/A   Clear
3:54 AM 35.1 °F - 28.9 °F 78% 30.26 in 10.0 mi Calm Calm - N/A   Clear
4:54 AM 35.1 °F - 28.0 °F 76% 30.26 in 10.0 mi Calm Calm - N/A   Clear
5:54 AM 33.1 °F - 28.0 °F 82% 30.27 in 10.0 mi Calm Calm - N/A   Clear
6:54 AM 30.0 °F 26.5 °F 26.1 °F 85% 30.28 in 10.0 mi SW 3.5 mph - N/A   Clear
7:54 AM 30.0 °F - 27.0 °F 88% 30.29 in 9.0 mi Calm Calm - N/A   Clear
8:54 AM 36.0 °F 33.3 °F 30.0 °F 79% 30.30 in 10.0 mi SW 3.5 mph - N/A   Clear
9:54 AM 42.8 °F 38.0 °F 28.4 °F 57% 30.28 in 10.0 mi North 8.1 mph - N/A   Clear
10:54 AM 45.0 °F 41.2 °F 28.9 °F 53% 30.30 in 10.0 mi North 6.9 mph - N/A   Clear
11:54 AM 46.9 °F - 28.0 °F 48% 30.30 in 10.0 mi NNW 12.7 mph - N/A   Clear
12:54 PM 48.9 °F - 30.9 °F 50% 30.28 in 10.0 mi NNW 13.8 mph 18.4 mph N/A   Partly Cloudy
1:54 PM 48.9 °F - 30.0 °F 48% 30.26 in 10.0 mi NNW 9.2 mph - N/A   Partly Cloudy
2:54 PM 51.1 °F - 30.0 °F 44% 30.25 in 10.0 mi North 8.1 mph 17.3 mph N/A   Scattered Clouds
3:54 PM 51.1 °F - 30.0 °F 44% 30.25 in 10.0 mi NNE 12.7 mph 17.3 mph N/A   Mostly Cloudy
4:54 PM 50.0 °F - 30.0 °F 46% 30.24 in 10.0 mi NNW 8.1 mph - N/A   Scattered Clouds
5:54 PM 46.0 °F 43.9 °F 30.9 °F 56% 30.25 in 10.0 mi NW 4.6 mph - N/A   Clear
6:54 PM 46.0 °F 43.9 °F 30.0 °F 54% 30.26 in 10.0 mi NNW 4.6 mph - N/A   Mostly Cloudy
7:54 PM 45.0 °F 43.5 °F 30.9 °F 58% 30.26 in 10.0 mi North 3.5 mph - N/A   Clear
8:54 PM 37.9 °F - 30.9 °F 76% 30.27 in 10.0 mi Calm Calm - N/A   Clear
9:54 PM 35.1 °F 32.2 °F 30.9 °F 85% 30.29 in 10.0 mi WSW 3.5 mph - N/A   Clear
10:54 PM 34.0 °F - 30.0 °F 85% 30.29 in 10.0 mi Calm Calm - N/A   Clear
11:54 PM 30.9 °F 26.2 °F 28.9 °F 92% 30.30 in 10.0 mi SW 4.6 mph - N/A   Clear